WORLDVIEW 2 DEB, 41742

Orbit data source: Space-Track

WORLDVIEW 2 DEB, 41742 is space debris in SSO originally from a launch on Thu, 08 Oct 2009 UTC launched from the Air Force Western Test Range (AFWTR). Debris objects in space refer to the collection of defunct objects orbiting the Earth. Examples of debris include non-operational satellites, rocket bodies, and fragments generated from explosions, collisions, or faulty payload assembly.

Loading next visibility...
Identifier
41742, 2009-055K
Orbit
SSO
Country
Flag of USUS
Related business
Manufacturer
Ball
Mission
Spacecraft
Bus & Motor
Unknown
Mass
Unknown
Launch date (UTC)
2009-10-08 (16 years ago)
Launch vehicle
Unknown
Launch site
Air Force Western Test Range (AFWTR)
Object type
Payload
Rocket body
Debris
Shape & HBR
Unknown shape, 0.1 m
Radar Cross Section
Small (<0.1 m²)

Expand to show TLE details & history
Last TLE update: 13 hours ago

TLE from 13 hours ago
0 WORLDVIEW 2 DEB
1 41742U 09055K   26036.71429806  .00009904  00000-0  21812-2 0  9999
2 41742  98.3522 130.4392 0007554 244.9610 115.0804 14.57605050502951
Epoch: 2026-02-05T17:08Z
TLE epoch observation values (Epoch: 2026-02-05T17:08:35.352Z)
Latitude
-0.00006°
Longitude
97.42935°
Altitude
706.165 km
Speed
7.502 km/s
True Right ascension
08h 41m 45s
True Declination
0° 00' 00"
Sunlit
Object was in full shadow at epoch
Visualization orbit readout
Latitude
Unknown
Longitude
Unknown
Altitude
Unknown
Speed
Unknown
Apparent Right ascension
Unknown
Apparent Declination
Unknown
Sunlit
N/A
Visualization observer readout
Local Sidereal Time
07:58:40
Azimuth
Unknown
Elevation
Unknown
Doppler factor
Unknown
Orbital elements
Apogee altitude
703.354 km
Perigee altitude
692.664 km
Semi-major axis
7,076.146 km
Eccentricity
0.00076
Inclination
98.3522°
RAAN
130.4392°
Arg. of periapsis
244.961°
True anomaly
115.15877°
Mean anomaly
115.0804°
Eccentric anomaly
115.11959°
Mean motion
3.64626 °/min
Orbital period
98.73 mins
BSTAR
0.0021812
Loading maneuver chart data...
Computing Atmospheric mass density...

Documentation

Showing up to 5 results
|